| time (UTC) | temp F | wind direction | speed MPH | gust MPH | rain 1hr in | rain 24hr in | rain mn in | humidity % | barometer mb |
| 20260901210041 | 84 | 142 | 2.0 | 10.0 | 0.00 | 0.00 | 0.00 | 28 | 1012.1 |
| 20260901204535 | 83 | 42 | 3.0 | 12.0 | 0.00 | 0.00 | 0.00 | 31 | 1012.2 |
| 20260901203038 | 83 | 74 | 6.0 | 13.0 | 0.00 | 0.00 | 0.00 | 30 | 1012.4 |
| 20260901201539 | 83 | 71 | 7.0 | 12.0 | 0.00 | 0.00 | 0.00 | 30 | 1012.8 |
| 20260901200037 | 81 | 65 | 7.0 | 11.0 | 0.00 | 0.00 | 0.00 | 34 | 1012.8 |
| 20260901194540 | 80 | 87 | 3.0 | 8.0 | 0.00 | 0.00 | 0.00 | 34 | 1013.1 |
| 20260901193037 | 81 | 111 | 7.0 | 13.0 | 0.00 | 0.00 | 0.00 | 31 | 1013.3 |
| 20260901191537 | 81 | 114 | 2.0 | 9.0 | 0.00 | 0.00 | 0.00 | 34 | 1013.5 |
| 20260901190036 | 80 | 79 | 1.0 | 8.0 | 0.00 | 0.00 | 0.00 | 34 | 1013.6 |
| 20260901184540 | 81 | 98 | 6.0 | 11.0 | 0.00 | 0.00 | 0.00 | 32 | 1013.7 |
| 20260901183036 | 80 | 143 | 5.0 | 11.0 | 0.00 | 0.00 | 0.00 | 34 | 1013.8 |
| 20260901181540 | 79 | 159 | 8.0 | 12.0 | 0.00 | 0.00 | 0.00 | 34 | 1014.1 |
| 20260901180037 | 77 | 117 | 4.0 | 11.0 | 0.00 | 0.00 | 0.00 | 33 | 1014.2 |
| 20260901174534 | 75 | 126 | 4.0 | 10.0 | 0.00 | 0.00 | 0.00 | 35 | 1014.2 |
| 20260901173036 | 74 | 132 | 3.0 | 10.0 | 0.00 | 0.00 | 0.00 | 36 | 1014.4 |
| 20260901171547 | 73 | 178 | 3.0 | 7.0 | 0.00 | 0.00 | 0.00 | 39 | 1014.5 |
| 20260901170058 | 72 | 142 | 1.0 | 7.0 | 0.00 | 0.00 | 0.00 | 40 | 1014.7 |
| 20260901164541 | 71 | 0 | 0.0 | 4.0 | 0.00 | 0.00 | 0.00 | 43 | 1014.9 |
| 20260901163042 | 69 | 136 | 1.0 | 4.0 | 0.00 | 0.00 | 0.00 | 46 | 1015.0 |
| 20260901161534 | 66 | 0 | 0.0 | 3.0 | 0.00 | 0.00 | 0.00 | 49 | 1015.3 |
| 20260901160044 | 64 | 0 | 0.0 | 0.0 | 0.00 | 0.00 | 0.00 | 56 | 1015.3 |
| 20260901154532 | 61 | 0 | 0.0 | 4.0 | 0.00 | 0.00 | 0.00 | 59 | 1015.3 |
| 20260901153036 | 59 | 308 | 2.0 | 5.0 | 0.00 | 0.00 | 0.00 | 60 | 1015.5 |
| 20260901151535 | 57 | 294 | 3.0 | 5.0 | 0.00 | 0.00 | 0.00 | 64 | 1015.4 |
| 20260901150053 | 55 | 319 | 1.0 | 4.0 | 0.00 | 0.00 | 0.00 | 70 | 1015.6 |
| 20260901144543 | 53 | 26 | 1.0 | 3.0 | 0.00 | 0.00 | 0.00 | 74 | 1015.5 |
| 20260901143035 | 51 | 26 | 0.0 | 2.0 | 0.00 | 0.00 | 0.00 | 78 | 1015.6 |
| 20260901141533 | 49 | 0 | 0.0 | 0.0 | 0.00 | 0.00 | 0.00 | 79 | 1015.5 |
| 20260901140037 | 48 | 0 | 0.0 | 3.0 | 0.00 | 0.00 | 0.00 | 81 | 1015.5 |
| 20260901134541 | 47 | 0 | 0.0 | 0.0 | 0.00 | 0.00 | 0.00 | 83 | 1015.7 |
| 20260901133032 | 46 | 0 | 0.0 | 0.0 | 0.00 | 0.00 | 0.00 | 85 | 1015.5 |
| 20260901131543 | 45 | 0 | 0.0 | 0.0 | 0.00 | 0.00 | 0.00 | 86 | 1015.3 |
| 20260901130036 | 45 | 0 | 0.0 | 0.0 | 0.00 | 0.00 | 0.00 | 85 | 1015.4 |
| 20260901124536 | 45 | 0 | 0.0 | 0.0 | 0.00 | 0.00 | 0.00 | 84 | 1015.3 |
| 20260901123039 | 45 | 0 | 0.0 | 0.0 | 0.00 | 0.00 | 0.00 | 84 | 1015.4 |
| 20260901121537 | 45 | 0 | 0.0 | 2.0 | 0.00 | 0.00 | 0.00 | 83 | 1015.3 |
| 20260901120034 | 46 | 0 | 0.0 | 0.0 | 0.00 | 0.00 | 0.00 | 82 | 1015.4 |
| 20260901114540 | 46 | 0 | 0.0 | 0.0 | 0.00 | 0.00 | 0.00 | 82 | 1015.3 |
| 20260901113033 | 46 | 0 | 0.0 | 3.0 | 0.00 | 0.00 | 0.00 | 82 | 1015.2 |
| 20260901111540 | 46 | 0 | 0.0 | 0.0 | 0.00 | 0.00 | 0.00 | 82 | 1015.3 |
| 20260901110036 | 46 | 0 | 0.0 | 0.0 | 0.00 | 0.00 | 0.00 | 84 | 1015.4 |
| 20260901104547 | 46 | 0 | 0.0 | 1.0 | 0.00 | 0.00 | 0.00 | 84 | 1015.3 |
| 20260901103033 | 45 | 0 | 0.0 | 4.0 | 0.00 | 0.00 | 0.00 | 82 | 1015.3 |
| 20260901101539 | 46 | 0 | 0.0 | 0.0 | 0.00 | 0.00 | 0.00 | 83 | 1015.4 |
| 20260901100041 | 46 | 0 | 0.0 | 0.0 | 0.00 | 0.00 | 0.00 | 82 | 1015.7 |
| 20260901094536 | 46 | 0 | 0.0 | 0.0 | 0.00 | 0.00 | 0.00 | 81 | 1015.7 |
| 20260901093039 | 46 | 0 | 1.0 | 3.0 | 0.00 | 0.00 | 0.00 | 80 | 1015.7 |
| 20260901091535 | 46 | 26 | 2.0 | 4.0 | 0.00 | 0.00 | 0.00 | 80 | 1015.7 |
| 20260901090036 | 47 | 0 | 0.0 | 0.0 | 0.00 | 0.00 | 0.00 | 77 | 1016.0 |
| 20260901084551 | 48 | 0 | 0.0 | 0.0 | 0.00 | 0.00 | 0.00 | 76 | 1015.9 |
| 20260901083036 | 48 | 0 | 0.0 | 0.0 | 0.00 | 0.00 | 0.00 | 77 | 1015.8 |
| 20260901081533 | 49 | 0 | 0.0 | 0.0 | 0.00 | 0.00 | 0.00 | 75 | 1015.6 |
| 20260901080034 | 49 | 0 | 0.0 | 0.0 | 0.00 | 0.00 | 0.00 | 75 | 1015.7 |
| 20260901074536 | 49 | 0 | 0.0 | 0.0 | 0.00 | 0.00 | 0.00 | 74 | 1015.7 |
| 20260901073034 | 49 | 0 | 0.0 | 0.0 | 0.00 | 0.00 | 0.00 | 73 | 1015.8 |
| 20260901071533 | 50 | 0 | 0.0 | 0.0 | 0.00 | 0.00 | 0.00 | 71 | 1015.9 |
| 20260901070040 | 50 | 0 | 0.0 | 0.0 | 0.00 | 0.00 | 0.00 | 70 | 1016.0 |
| 20260901064542 | 51 | 0 | 0.0 | 0.0 | 0.00 | 0.00 | 0.00 | 70 | 1015.9 |
| 20260901063049 | 51 | 0 | 0.0 | 2.0 | 0.00 | 0.00 | 0.00 | 69 | 1015.9 |
| 20260901061536 | 52 | 0 | 0.0 | 0.0 | 0.00 | 0.00 | 0.00 | 68 | 1015.9 |
| 20260901060038 | 53 | 0 | 0.0 | 0.0 | 0.00 | 0.00 | 0.00 | 67 | 1016.0 |
| 20260901054535 | 55 | 0 | 0.0 | 4.0 | 0.00 | 0.00 | 0.00 | 64 | 1016.1 |
| 20260901053050 | 59 | 0 | 0.0 | 0.0 | 0.00 | 0.00 | 0.00 | 55 | 1016.2 |
| 20260901051538 | 59 | 84 | 1.0 | 4.0 | 0.00 | 0.00 | 0.00 | 54 | 1015.9 |
| 20260901050034 | 58 | 76 | 3.0 | 4.0 | 0.00 | 0.00 | 0.00 | 57 | 1016.1 |
| 20260901044541 | 57 | 0 | 0.0 | 4.0 | 0.00 | 0.00 | 0.00 | 59 | 1016.0 |
| 20260901043045 | 57 | 0 | 0.0 | 5.0 | 0.00 | 0.00 | 0.00 | 57 | 1016.0 |
| 20260901041537 | 59 | 0 | 0.0 | 2.0 | 0.00 | 0.00 | 0.00 | 55 | 1016.2 |
| 20260901040034 | 61 | 43 | 2.0 | 7.0 | 0.00 | 0.00 | 0.00 | 51 | 1016.2 |
| 20260901034539 | 60 | 73 | 1.0 | 3.0 | 0.00 | 0.00 | 0.00 | 53 | 1016.1 |
| 20260901033048 | 59 | 0 | 0.0 | 2.0 | 0.00 | 0.00 | 0.00 | 55 | 1016.3 |
| 20260901031541 | 62 | 0 | 0.0 | 8.0 | 0.00 | 0.00 | 0.00 | 52 | 1016.0 |
| 20260901030034 | 62 | 71 | 3.0 | 6.0 | 0.00 | 0.00 | 0.00 | 51 | 1015.8 |
| 20260901024536 | 66 | 75 | 5.0 | 9.0 | 0.00 | 0.00 | 0.00 | 44 | 1015.5 |
| 20260901023036 | 67 | 65 | 7.0 | 11.0 | 0.00 | 0.00 | 0.00 | 43 | 1015.5 |
| 20260901021543 | 70 | 73 | 6.0 | 10.0 | 0.00 | 0.00 | 0.00 | 40 | 1015.4 |
| 20260901020041 | 71 | 78 | 5.0 | 8.0 | 0.00 | 0.00 | 0.00 | 38 | 1015.4 |
| 20260901014539 | 72 | 84 | 5.0 | 9.0 | 0.00 | 0.00 | 0.00 | 38 | 1015.3 |
| 20260901013040 | 74 | 65 | 4.0 | 8.0 | 0.00 | 0.00 | 0.00 | 36 | 1015.5 |
| 20260901011538 | 75 | 72 | 5.0 | 8.0 | 0.00 | 0.00 | 0.00 | 34 | 1015.5 |
| 20260901010038 | 77 | 69 | 4.0 | 8.0 | 0.00 | 0.00 | 0.00 | 34 | 1015.6 |
| 20260901004538 | 78 | 138 | 3.0 | 7.0 | 0.00 | 0.00 | 0.00 | 29 | 1015.6 |
| 20260901003037 | 78 | 109 | 1.0 | 10.0 | 0.00 | 0.00 | 0.00 | 27 | 1015.8 |
| 20260901001547 | 79 | 123 | 1.0 | 8.0 | 0.00 | 0.00 | 0.00 | 25 | 1015.9 |
| 20260901000045 | 79 | 0 | 0.0 | 10.0 | 0.00 | 0.00 | 0.00 | 26 | 1015.8 |
| 20260831234535 | 79 | 186 | 2.0 | 7.0 | 0.00 | 0.00 | 0.00 | 25 | 1016.1 |
| 20260831233036 | 79 | 219 | 5.0 | 10.0 | 0.00 | 0.00 | 0.00 | 27 | 1016.3 |
| 20260831231538 | 79 | 0 | 2.0 | 8.0 | 0.00 | 0.00 | 0.00 | 28 | 1016.4 |
| 20260831230038 | 78 | 71 | 3.0 | 13.0 | 0.00 | 0.00 | 0.00 | 28 | 1016.4 |
| 20260831224536 | 78 | 157 | 5.0 | 11.0 | 0.00 | 0.00 | 0.00 | 28 | 1016.5 |
| 20260831223039 | 78 | 297 | 2.0 | 8.0 | 0.00 | 0.00 | 0.00 | 28 | 1016.6 |
| 20260831221540 | 78 | 183 | 5.0 | 11.0 | 0.00 | 0.00 | 0.00 | 29 | 1016.7 |
| 20260831220037 | 77 | 142 | 6.0 | 11.0 | 0.00 | 0.00 | 0.00 | 29 | 1016.6 |
| 20260831214537 | 77 | 171 | 4.0 | 14.0 | 0.00 | 0.00 | 0.00 | 29 | 1016.8 |
| 20260831213036 | 77 | 316 | 4.0 | 13.0 | 0.00 | 0.00 | 0.00 | 28 | 1017.1 |
| 20260831211533 | 76 | 191 | 4.0 | 14.0 | 0.00 | 0.00 | 0.00 | 31 | 1017.2 |